Regional Weather Roundup
Issued by NWS Wakefield, VA

Home | Current Version | Previous Version | Text Only | Print | Product List | Glossary On
Versions: 1 2 3 4 5 6 7 8 9 10 11 12 13 14 15 16 17 18 19 20 21 22 23 24 25 26 27
000
ASUS41 KAKQ 300315
RWRAKQ

REGIONAL WEATHER ROUNDUP
NATIONAL WEATHER SERVICE WAKEFIELD VA
1100 PM EDT SUN MAY 29 2016

Note: "fair" indicates few or no clouds below 12,000 feet with no
significant weather and/or obstructions to visibility. * = Denotes
station may not report precipitation (e.g., rain,snow,etc.),
thunder or fog.

VAZ042-051-052>054-056-300400-
NORTHERN VIRGINIA

CITY           SKY/WX    TMP DP  RH WIND       PRES   REMARKS
WASH NATIONAL  LGT RAIN  68  65  90 NE7       30.06F
DULLES         CLOUDY    69  66  90 CALM      30.07F
FORT BELVOIR   MOCLDY    69  67  95 NW5       30.06F
QUANTICO       FAIR      70  67  90 CALM      30.06F
FREDERICKSBRG* CLOUDY    67  67  99 CALM      30.06S
STAFFORD*      CLOUDY    66  64  95 CALM      30.10F
WARRENTON      MOCLDY    67  63  85 CALM      30.07S
CULPEPER*      MOCLDY    67  66  99 CALM      30.07F
MANASSAS*      CLOUDY    68  66  94 CALM      30.06F
LEESBURG*      CLOUDY    70  70 100 CALM      30.08S
WINCHESTER     DRIZZLE   68  63  83 SW6       30.08S
FRONT ROYAL*   CLOUDY    66  66 100 S3        30.08S
LURAY*         CLOUDY    64  64 100 SW6       30.10S
$$

VAZ048-049-060>072-079>083-300400-
CENTRAL AND SOUTH CENTRAL VIRGINIA

CITY           SKY/WX    TMP DP  RH WIND       PRES   REMARKS
RICHMOND       CLOUDY    69  68  96 N7        30.05S
CHESTERFIELD*  CLOUDY    70  59  68 N8        30.07S
PETERSBURG*    LGT RAIN  72  72 100 N5        30.06S
HANOVER        CLOUDY    68  66  93 CALM      30.08S
TAPPAHANNOCK*  DRIZZLE   71  71 100 CALM      30.06F
QUINTON*       CLOUDY    71  70  99 N6        30.05S
CHARLOTTSVILLE CLOUDY    68  60  75 CALM      30.09R
GORDONSVILLE*  CLOUDY    68  66  94 CALM      30.08R
ORANGE*        CLOUDY    66  66 100 SW3       30.10R
LOUISA*        CLOUDY    70  68  94 CALM      30.07S
BUMPASS*       CLOUDY    66  65  95 CALM      30.08R
FARMVILLE*     CLOUDY    68  62  80 CALM      30.07S
CREWE*         CLOUDY    68  68 100 NW3       30.06F
FORT PICKETT*  NOT AVBL
CHASE CITY*    FAIR      65  63  94 CALM      30.07S
CLARKSVILLE*   FAIR      64  64 100 CALM      30.06S
SOUTH HILL*    CLOUDY    69  68  99 N6        30.11S
LAWRENCEVILLE* CLOUDY    70  70 100 N3        30.05S
EMPORIA*       CLOUDY    72  72 100 CALM      30.05S
$$

VAZ088>098-300400-
SOUTHEAST VIRGINIA

CITY           SKY/WX    TMP DP  RH WIND       PRES   REMARKS
NORFOLK        FAIR      76  72  87 S7        30.04F
VIRGINIA BEACH MOCLDY    77  71  82 SE8       30.04F
NORFOLK NAVAL  CLOUDY    76  72  87 S6        30.06S
WEST POINT*    FAIR      72  71  98 CALM      30.06F
SALUDA*        MOCLDY    72  72 100 CALM      30.04F
NEWPORT NEWS   FAIR      72  71  97 CALM      30.05S
LANGLEY AFB    MOCLDY    74  73  97 SE3       30.04F
FORT EUSTIS    FAIR      73 N/A N/A SE5       30.03S
WILLIAMSBURG*  FAIR      73  73 100 SE3       30.05F
HR EXEC AP*      N/A     72  70  94 SE3       30.07S
FRANKLIN*      FAIR      73  72  94 SE3       30.04F
US460-WAKEFLD  FAIR      73  71  93 VRB3      30.04F
$$

VAZ020-022-025-037-045-300400-
WEST CENTRAL AND SOUTHWEST VIRGINIA

CITY           SKY/WX    TMP DP  RH WIND       PRES   REMARKS
STAUNTON*      RAIN      60  60  98 CALM      30.14F
WAYNESBORO*    CLOUDY    59  58  96 SW3       30.14S
HOT SPRINGS VA CLOUDY    55  55 100 E7        30.18S
LYNCHBURG      FAIR      63  59  87 NE5       30.11F
DANVILLE       LGT RAIN  63  61  93 CALM      30.08R FOG
SOUTH BOSTON*  FAIR      64  62  96 N3        30.07F
MARTINSVILLE   FAIR      59  59  97 N6        30.11S
ROANOKE        MOCLDY    62  60  93 N6        30.14S
BLACKSBURG     FAIR      60  59  98 N3        30.17S
DUBLIN*        FAIR      61  60  97 E3        30.15F
MARION*        MOCLDY    62  60  93 CALM      30.18R
HILLSVILLE*    FAIR      59  58  94 N3        30.13F
RICHLANDS*     FAIR      65  63  90 SE3       30.14S
WISE*          FAIR      64  54  68 CALM      30.16R
ABINGDON*      FAIR      65  59  82 CALM      30.13R
$$

MDZ021>025-VAZ099-100-300400-
SOUTHERN MARYLAND AND THE DELMARVA PENINSULA

CITY           SKY/WX    TMP DP  RH WIND       PRES   REMARKS
PATUXENT RIVER CLOUDY    72  70  93 SE5       30.04S
BAY BRIDGE APT CLOUDY    72  70  94 NW3       30.05F FOG
LEONARDTOWN    CLOUDY    72  70  94 CALM      30.06S
DOVER          LGT RAIN  72  72 100 E6        30.05F
GEORGETOWN     CLOUDY    73  70  90 S8        30.07F
EASTON         CLOUDY    75  75 100 SE6       30.08F
CAMBRIDGE      CLOUDY    72  70  94 SE7       30.05F
SALISBURY      CLOUDY    73  70  90 SE7       30.07S
OCEAN CITY     CLOUDY   N/A N/A N/A VRB3      30.08F
WALLOPS ISLAND MOCLDY    71  70  96 S8        30.07F
ACCOMACK*      MOCLDY    72  68  88 CALM      30.06F
$$

NCZ012>017-030>032-300400-
NORTH CENTRAL AND EASTERN NORTH CAROLINA

CITY           SKY/WX    TMP DP  RH WIND       PRES   REMARKS
ROANOKE RAPIDS FAIR      72  72 100 CALM      30.04R FOG
RALEIGH        CLOUDY    67  64  90 NE6       30.05S
ELIZABETH CITY CLOUDY    75  72  90 SE6       30.05F
AHOSKIE*       PTCLDY    73  71  92 SE3       30.05R
EDENTON*       CLOUDY   N/A N/A N/A SE5       30.05S
CURRITUCK*     CLOUDY    75  74  97 SE3       30.07S
KILL DEVIL HLS LGT RAIN  73  70  90 SE3       30.06S
MANTEO         NOT AVBL
CAPE HATTERAS  LGT RAIN  74  73  97 S3        30.06S
TARBORO*       FAIR      74  71  89 CALM      30.04S
GOLDSBORO      NOT AVBL
WASHINGTON     CLOUDY    73  71  92 E5        30.03F
GREENVILLE     CLEAR     73  72  94 SE3       30.05S
NEW BERN       CLOUDY    75  71  87 SE6       30.04S
WILMINGTON     CLOUDY    74  72  93 E3        30.00S
$$

VAZ048-300400-
ELSEWHERE

CITY           SKY/WX    TMP DP  RH WIND       PRES   REMARKS
HARRISBURG PA  LGT RAIN  72  68  87 CALM      30.05R
BALTIMORE      LGT RAIN  67  64  90 W5        30.05F
ANNAPOLIS      LGT RAIN  71  69  93 NW3       30.04F FOG
ANDREWS AFB    CLOUDY    66  64  94 N6        30.05F
PHILADELPHIA   LGT RAIN  72  69  90 S6        30.08S FOG
HENDERSON NC   LGT RAIN  63  62  95 N5        30.07S
GREENSBORO     CLOUDY    66  58  75 NE9       30.07S
ROCKY MOUNT    MOCLDY    75  71  87 SE3       30.03S
$$

VAZ100-300400-
MARINE

STATION/POSITION TIME  TEMP    WIND        PRES    WAVE   SWELL
                       AIR SEA DIR/SP/G            HT/PER HT/PER
                 (UTC) (F)     (DEG/KT/KT) (MB)    (FT/S) (FT/S)
BRANDYWINE LGT   0200   67                   N/A
CAPE MAY NJ      0200   69 69                N/A
LEWES DE         0200   70 63                N/A
15NM E FENWICK I 0250   67 65              1018.8F   3/ 7
OCEAN-CITY-INLET 0200   67 67                N/A
WACHAPREAGUE VA  0200   71 79                N/A
THOMAS POINT MD  0300   70 69  350/  5/  5 1018.8F
GOOSES REEF MD   0200   72 69  150/  6/  8 1018.6R   0
COVE POINT MD    0200   70                   N/A
SOLOMONS ISLAND  0200   71 68                N/A
BISHOPS HEAD MD  0200   74 76                N/A
PINEY POINT MD   0200          150/  8/  8   N/A
POTOMAC MD       0200   72 71  150/  6/  8 1017.0R
CAMBRIDGE MD     0200   74 68                N/A
LEWISETTA VA     0200   73 70                N/A
RAPPAHANNOCK LGT 0200                      1018.5R
STINGRAY PT      0200   72 71  160/  8/ 10 1018.2R   1
YORK RVR RNG VA  0200   72                   N/A
YORKTOWN VA      0200   73 71                N/A
JAMESTOWN VA     0200   75 75   80/  4/  6   N/A     0
DOMINION TERM VA 0200   75                   N/A
KIPTOPEKE VA     0200      70                N/A
CHES BAY BRIDGE  0200   72 70                N/A
CAPE HENRY VA    0200   71                   N/A
CHESAPEAKE LGHT  0200   71     150/ 18/ 19 1018.4S
WILLOUBY STN VA  0200   76                   N/A
CAPE HENRY BUOY  0212      69                N/A     3/ 6
1ST LANDING BUOY 0200   71 70  130/ 10/ 12 1017.7S   1/ 4
CAPE CHARLES BUO 0226      70                N/A     3/ 8   2/ 8
OFFSHORE WE BUOY 0221      71                N/A     4/ 7   2/13
64NM E OF VA BCH 0250   71 64  170/ 10/ 12 1018.6F   4/ 6   3/ 6
DUCK PIER NC     0200   67 60                N/A
44100 DUCK FRF   0224      69                N/A     4/ 6
44056 DUCK FRF   0211      64                N/A     3/ 7
OREGON INLET NC  0200   75 80                N/A
HATTERAS NC      0200   75 78                N/A
DIAMOND SHLS NC  0250   79 82  160/ 19/ 23 1017.4F   6/ 8   2/21
CAPE LOOKOUT NC  0200   76     160/  9/  9 1016.8R
C1F1C2F2C3F3C4F4C5F5C6F6C7F7C8M1C9!



USA.gov is the U.S. government's official web portal to all federal, state and local government web resources and services.